星链-11494 (STARLINK-11494)

导读 | 豆包AI

STARLINK-11494是美国太空探索技术公司(SpaceX)星链(Starlink)卫星互联网项目中的一颗低轨道通信卫星,于2024年12月8日发射升空,目前处于在轨运行状态。该卫星运行在近地轨道,主要为全球尤其是偏远地区提供高速、低延迟的互联网接入服务,属于Starlink星座组网的重要组成部分,助力实现全球宽带覆盖,缩小数字鸿沟。

基本信息
目录编号:
62272
目录名称:
STARLINK-11494
国际标识:
2024-237F
轨道中心:
EARTH
卫星名称:
星链-11494
卫星全名:
星链-11494 (STARLINK-11494)
卫星状态:
在轨 (已飞行508 天)
发射日期:
2024-12-08 UTC
国别 :
美国 (US)
星等 :
--
轨道信息
数据来源 国际轨道数据
星历时间: 2026-04-30T07:09:59+0800
6小时前
查看轨道信息
半长轴: 6734.348km
偏心率: 0.0001947
轨道倾角: 43.001°
近地点辐角 265.098°
升交点赤经 107.803°
平近点角 94.966°
近地点: 354.899km
远地点: 357.523km
周期: 91.665分钟
每日圈数: 15.709394
详细信息
固有亮度:
5
最大亮度:
2.5
卫星平台:
Starlink V1.0
覆盖范围:
全球
运营商:
太空探索技术公司
运营商所在国:
美国
制造商(研发单位):
太空探索技术公司
制造商所在国:
美国
使用方式:
暂无
卫星简介
Starlink 计划是 SpaceX 推出的全球卫星互联网项目,通过发射低轨道卫星,为全球尤其是偏远地区提供高速、低延迟的互联网服务。自 2019 年起,Starlink 已部署数千颗卫星,旨在缩小全球数字鸿沟,推动互联网普及。该项目还为军事、航空等行业提供通信支持,带来广泛经济效益。
2D轨道图
3D轨道图
轨道高度分析图
轨道倾角分析图
轨道综合分析图
查看轨道综合分析图